Regional Weather Roundup
Issued by NWS

Home | Current Version | Previous Version | Text Only | Print | Product List | Glossary Off
Versions: 1 2 3 4 5 6 7 8 9 10 11 12 13 14 15 16 17 18 19 20 21 22 23 24 25 26 27 28 29 30 31 32 33 34 35 36 37 38 39 40 41 42 43 44 45 46 47 48 49 50

000
ASUS43 KLMK 080102
RWRKY
KENTUCKY REGIONAL WEATHER ROUNDUP
NATIONAL WEATHER SERVICE LOUISVILLE KY
800 PM EST WED DEC 07 2016

NOTE "FAIR" INDICATES FEW OR NO CLOUDS BELOW 12,000 FEET
WITH NO SIGNIFICANT WEATHER AND/OR OBSTRUCTIONS TO VISIBILITY.

KYZ001>023-026-027-061>063-070>075-080200-
WESTERN AND SOUTH CENTRAL KENTUCKY

CITY           SKY/WX    TMP DP  RH WIND       PRES   REMARKS
PADUCAH        CLOUDY    39  23  52 N8        30.24R WCI  33
HENDERSON      CLOUDY    37  21  52 NW5       30.24R WCI  34
OWENSBORO      CLOUDY    37  24  59 N8        30.23S WCI  31
HOPKINSVILLE   CLOUDY    40  23  50 N9        30.20R WCI  34
BOWLING GREEN  PTCLDY    40  25  55 VRB6      30.20R
GLASGOW        NOT AVBL
$$

KYZ024-025-028>034-038-045-046-053-080200-
NORTH CENTRAL KENTUCKY

CITY           SKY/WX    TMP DP  RH WIND       PRES   REMARKS
LOUISVILLE/SDF CLOUDY    39  21  48 NW7       30.19S WCI  34
LOUISVILLE/LOU CLOUDY    38  22  52 NW3       30.20R
FORT KNOX      CLOUDY    36  23  58 NW6       30.17F WCI  31
$$

KYZ035>037-039>044-047>052-055>060-089>105-080200-
NORTHEAST KENTUCKY

CITY           SKY/WX    TMP DP  RH WIND       PRES   REMARKS
LEXINGTON      CLOUDY    37  25  61 NW8       30.17R WCI  31
COVINGTON      CLOUDY    34  24  67 CALM      30.15R
FRANKFORT      CLOUDY    37  22  54 CALM      30.17R
$$

KYZ054-064>069-076>088-106>120-080200-
SOUTHEAST KENTUCKY

CITY           SKY/WX    TMP DP  RH WIND       PRES   REMARKS
JACKSON        CLOUDY    39  29  67 CALM      30.10F
LONDON         PTCLDY    34  29  82 N5        30.12R WCI  30
SOMERSET       CLOUDY    37  25  60 CALM      30.16R
MIDDLESBORO    PTCLDY    37  33  85 CALM      30.12S
MONTICELLO     CLEAR     30  27  88 W13       30.17R WCI  20
$$





USA.gov is the U.S. government's official web portal to all federal, state and local government web resources and services.